Grand Island, NE

11:04 PM CDT on October 19, 2019 (GMT -0500)
Central Nebraska Regional

Weather History for KGRI - August, 2019

Change the Weather History Date:

Saturday, August 24, 2019

  Actual Average Record
Temperature  
Mean Temperature 67 °F 73 °F  
Max Temperature 70 °F 85 °F 108 °F (1936)
Min Temperature 64 °F 61 °F 38 °F (1928)
Degree Days  
Heating Degree Days 0 0  
Month to date heating degree days 0 0  
Since 1 June heating degree days 14 26  
Since 1 July heating degree days 0 2  
Cooling Degree Days 2 8  
Month to date cooling degree days 220 234  
Year to date cooling degree days 899 861  
Since 1 June cooling degree days 841 796  
Growing Degree Days 17 (Base 50)    
Moisture  
Dew Point 64 °F    
Average Humidity 89    
Maximum Humidity 93    
Minimum Humidity 84    
Precipitation  
Precipitation 0.71 in 0.09 in 2.30 in (1900)
Month to date precipitation 10.03 2.50  
Year to date precipitation 31.67 20.15  
Snow  
Snow 0.00 in 0.00 in - ()
Month to date snowfall 0.0 0.0  
Since 1 June snowfall 0.0 0.0  
Since 1 July snowfall 0.0 0.0  
Snow Depth 0.00 in    
Sea Level Pressure  
Sea Level Pressure 30.03 in    
Wind  
Wind Speed 11 mph (SE)    
Max Wind Speed 16 mph    
Max Gust Speed 23 mph    
Visibility 8 miles    
Events Rain , Thunderstorm    
T = Trace of Precipitation, MM = Missing Value Source: NWS Daily Summary

Daily Weather History Graph

Daily Weather History Graph

Search for Another Location

Airport or City:

Astronomy

Aug. 24, 2019 Rise Set
Actual Time 6:51 AM CDT 8:18 PM CDT
Civil Twilight 6:23 AM CDT 8:47 PM CDT
Nautical Twilight 5:48 AM CDT 9:21 PM CDT
Astronomical Twilight 5:11 AM CDT 9:58 PM CDT
Moon 12:44 AM CDT (8/24) 3:37 PM CDT (8/24)
Length of Visible Light 14h 24m
Length of Day
13h 26m
Last Quarter, 39% of the Moon is Illuminated
Aug 24
Last Quarter
Aug 30
New
Sep 5
First Quarter
Sep 13
Full
Sep 21
Last Quarter

Hourly Weather History & Observations

Time (CDT) Temp. Dew Point Humidity Pressure Visibility Wind Dir Wind Speed Gust Speed Precip Events Conditions
12:53 AM 69.1 °F 64.9 °F 87% 30.07 in 10.0 mi ESE 10.4 mph - N/A   Overcast
1:05 AM 69.1 °F 64.9 °F 87% 30.09 in 10.0 mi ESE 10.4 mph - N/A   Overcast
1:53 AM 68.0 °F 64.0 °F 87% 30.07 in 10.0 mi SE 11.5 mph - N/A   Mostly Cloudy
2:53 AM 68.0 °F 64.0 °F 87% 30.06 in 10.0 mi SE 11.5 mph - N/A   Scattered Clouds
3:53 AM 66.9 °F 64.0 °F 90% 30.07 in 5.0 mi SSE 10.4 mph - 0.00 in Rain Heavy Rain
4:53 AM 66.9 °F 64.0 °F 90% 30.06 in 9.0 mi SE 11.5 mph - 0.12 in Rain Light Rain
5:50 AM 66.2 °F 64.4 °F 94% 30.07 in 10.0 mi SE 10.4 mph - 0.02 in   Overcast
5:53 AM 66.9 °F 64.0 °F 90% 30.05 in 10.0 mi SE 10.4 mph - 0.02 in   Overcast
6:22 AM 66.9 °F 64.0 °F 90% 30.07 in 10.0 mi SE 11.5 mph 19.6 mph N/A   Overcast
6:53 AM 66.9 °F 64.0 °F 90% 30.05 in 10.0 mi SE 12.7 mph - N/A   Overcast
7:53 AM 66.0 °F 64.0 °F 93% 30.04 in 1.5 mi SE 13.8 mph 23.0 mph 0.09 in Rain Heavy Rain
8:03 AM 66.9 °F 64.0 °F 90% 30.06 in 3.0 mi SE 10.4 mph 21.9 mph 0.06 in Rain Light Rain
8:53 AM 66.9 °F 64.0 °F 90% 30.04 in 2.5 mi SE 11.5 mph - 0.08 in Rain Light Rain
9:06 AM 66.9 °F 64.0 °F 90% 30.05 in 5.0 mi SE 13.8 mph 23.0 mph 0.02 in Rain Light Rain
9:53 AM 66.9 °F 64.9 °F 93% 30.03 in 8.0 mi SE 10.4 mph - 0.04 in   Overcast
10:53 AM 66.9 °F 64.9 °F 93% 30.03 in 8.0 mi SSE 10.4 mph - 0.00 in   Overcast
11:53 AM 68.0 °F 64.9 °F 90% 30.03 in 7.0 mi SSE 11.5 mph - 0.00 in Rain Light Rain
12:53 PM 66.9 °F 64.9 °F 93% 30.03 in 2.5 mi SE 8.1 mph - 0.03 in Rain Rain
1:03 PM 66.9 °F 64.9 °F 93% 30.05 in 3.0 mi SSE 4.6 mph - 0.02 in Rain Rain
1:25 PM 66.9 °F 64.9 °F 93% 30.04 in 2.5 mi SE 11.5 mph 17.3 mph 0.06 in Rain , Thunderstorm Rain
1:36 PM 66.9 °F 64.9 °F 93% 30.03 in 1.5 mi SE 15.0 mph 21.9 mph 0.11 in Rain , Thunderstorm Rain
1:40 PM 66.9 °F 64.9 °F 93% 30.03 in 2.0 mi SE 11.5 mph 21.9 mph 0.13 in Rain Rain
1:53 PM 66.0 °F 63.0 °F 90% 30.01 in 2.0 mi SE 12.7 mph - 0.17 in Rain Rain
2:07 PM 64.9 °F 62.1 °F 90% 30.03 in 4.0 mi South 15.0 mph - 0.04 in Rain Rain
2:53 PM 64.0 °F 62.1 °F 93% 30.02 in 7.0 mi South 9.2 mph - 0.14 in Rain Light Rain
3:53 PM 68.0 °F 64.9 °F 90% 30.01 in 10.0 mi SSE 10.4 mph - 0.01 in   Overcast
4:18 PM 68.0 °F 64.9 °F 90% 30.03 in 10.0 mi SE 11.5 mph - N/A   Overcast
4:53 PM 69.1 °F 64.9 °F 87% 30.00 in 10.0 mi SE 10.4 mph 17.3 mph N/A   Overcast
5:53 PM 69.1 °F 64.9 °F 87% 29.99 in 10.0 mi ESE 10.4 mph - N/A   Overcast
6:06 PM 69.1 °F 64.9 °F 87% 30.00 in 10.0 mi ESE 11.5 mph - N/A   Overcast
6:25 PM 69.1 °F 64.9 °F 87% 30.00 in 10.0 mi ESE 12.7 mph - N/A   Overcast
6:50 PM 69.8 °F 64.4 °F 83% 29.99 in 10.0 mi ESE 15.0 mph 21.9 mph N/A   Overcast
6:53 PM 69.1 °F 64.9 °F 87% 29.98 in 10.0 mi ESE 12.7 mph - N/A   Overcast
7:01 PM 69.1 °F 64.9 °F 87% 29.99 in 10.0 mi ESE 13.8 mph - N/A   Overcast
7:08 PM 69.1 °F 64.9 °F 87% 29.99 in 10.0 mi ESE 12.7 mph - N/A   Overcast
7:40 PM 68.0 °F 64.0 °F 87% 30.01 in 10.0 mi SE 11.5 mph - N/A   Overcast
7:51 PM 68.0 °F 64.4 °F 88% 30.01 in 10.0 mi SE 10.4 mph - N/A   Overcast
7:53 PM 68.0 °F 64.0 °F 87% 30.00 in 10.0 mi SE 8.1 mph - N/A   Overcast
8:08 PM 68.0 °F 64.0 °F 87% 30.01 in 10.0 mi SE 8.1 mph - N/A   Overcast
8:48 PM 66.2 °F 64.4 °F 94% 30.01 in 8.0 mi SE 10.4 mph - N/A   Overcast
8:53 PM 66.9 °F 64.0 °F 90% 30.00 in 6.0 mi ESE 10.4 mph - N/A   Overcast
8:55 PM 66.9 °F 64.0 °F 90% 30.01 in 5.0 mi SE 11.5 mph - N/A   Overcast
9:53 PM 66.9 °F 64.0 °F 90% 30.00 in 10.0 mi SE 9.2 mph - N/A   Overcast
10:53 PM 66.9 °F 64.0 °F 90% 29.98 in 7.0 mi ESE 10.4 mph - 0.01 in   Overcast
11:53 PM 66.0 °F 64.0 °F 93% 29.96 in 9.0 mi SE 12.7 mph - N/A   Overcast